Temperature
17 17 17 17 17 18 18 18 18 18 18 18 18 18 17 17 17 17 17 17 17 17 16 16 16 16 16 16 16 16 15 15 16 15 15 15 15 15 15 15 15 15 15
17 17 17 17 17 17 17 17 18 17 17 17 17 17 17 17 17 17 17 17 17 16 16 16 16 16 16 16 16 16 15 15 15 15 15 15 15 15 15 15 15 15 15
17 17 17 17 17 17 17 17 17 17 17 17 17 17 17 17 17 17 17 17 17 16 16 16 16 16 16 16 16 15 15 15 15 15 15 15 15 15 15 15 15 15 15
17 17 17 17 17 17 17 17 17 17 17 17 17 17 17 17 17 17 17 17 16 16 16 16 16 16 16 16 16 15 15 15 15 15 15 15 15 15 15 15 15 15 14
17 17 17 17 17 17 17 17 17 17 17 17 17 17 17 16 16 16 17 16 16 16 16 16 16 16 16 15 15 15 15 15 15 15 15 15 14 14 14 14 14 14 14
17 17 17 16 17 17 17 17 17 17 16 16 16 16 16 16 16 16 16 16 16 16 16 16 16 16 15 15 15 15 15 15 15 15 15 15 14 14 14 14 14 14 14
17 16 16 16 16 17 16 16 16 16 16 16 16 16 16 16 16 16 16 16 16 16 16 16 16 16 15 15 15 15 15 15 15 15 15 14 14 14 14 14 14 14 14
16 16 16 16 16 16 16 16 16 16 16 16 16 16 16 16 16 16 16 16 16 16 16 16 16 16 15 15 15 15 15 15 15 15 14 14 14 14 14 14 14 14 14
16 16 16 16 16 16 16 16 16 16 16 16 16 16 16 16 16 16 16 16 16 16 16 16 15 15 15 15 15 15 15 15 15 14 14 14 14 14 14 14 14 14 14
15 15 15 15 16 16 16 16 16 16 16 16 16 16 16 16 16 16 16 16 16 16 15 15 15 15 15 15 15 15 15 14 14 14 14 14 14 14 14 14 14 14 14
14 15 15 15 15 15 15 15 15 15 15 16 16 16 16 16 16 16 16 15 15 15 15 15 15 15 15 15 15 15 14 14 14 14 14 14 14 14 14 14 14 14 14
14 14 14 14 14 15 15 15 15 15 15 15 15 15 15 15 15 15 15 15 15 15 15 15 15 15 15 15 15 14 14 14 14 14 14 14 14 14 14 14 14 13 13
14 14 14 14 14 14 14 14 15 15 15 15 15 15 15 15 15 15 15 15 15 15 15 15 15 15 15 15 15 14 14 14 14 14 14 14 14 14 14 14 13 13 13
13 13 13 13 14 14 14 14 14 14 15 15 15 15 15 15 15 15 15 15 15 15 15 15 15 15 15 14 14 14 14 14 14 14 14 14 13 13 13 13 13 13 13
13 13 13 13 13 13 13 14 14 14 14 14 14 15 15 15 14 14 14 14 15 15 14 14 14 14 14 14 14 14 14 14 14 14 14 13 13 13 13 13 13 13 12
12 12 12 12 13 13 13 13 13 13 14 14 14 14 14 14 14 14 14 14 14 14 14 14 14 14 14 14 14 14 14 14 13 13 13 13 13 13 13 13 13 12 12
12 12 12 12 12 12 13 13 13 13 13 13 14 14 14 14 14 14 14 14 14 14 14 14 14 14 14 14 14 14 14 13 13 13 13 13 13 13 12 12 12 12 12
11 12 12 12 12 12 12 12 12 12 13 13 13 13 13 13 13 13 13 13 14 14 14 14 14 13 13 13 13 13 13 13 13 13 13 12 12 12 12 12 12 12 12
11 11 11 12 12 12 12 12 12 12 12 12 13 13 13 13 13 13 13 13 13 13 13 13 13 13 13 13 13 13 13 13 13 12 12 12 12 12 12 12 11 11 11
10 11 11 11 11 11 11 11 11 12 12 12 12 12 12 13 13 13 13 13 13 13 13 13 13 13 13 13 13 13 13 13 12 12 12 12 12 12 11 11 11 11 11
10 10 10 11 11 11 11 11 11 11 11 11 12 12 12 12 12 12 12 12 12 12 13 13 13 12 12 12 12 12 12 12 12 12 12 11 11 11 11 11 11 11 11
10 10 10 10 10 10 10 10 10 11 11 11 11 11 11 12 12 12 12 12 12 12 12 12 12 12 12 12 12 11 11 11 11 11 11 11 11 11 11 11 10 10 10
9 9 9 9 10 10 10 10 10 10 10 10 11 11 11 11 11 11 11 11 11 11 11 12 11 11 11 11 11 11 11 11 10 11 11 11 10 10 10 10 10 10 10
9 9 9 9 9 9 9 9 9 9 10 10 10 10 10 11 11 11 11 11 11 11 11 11 11 11 11 11 11 10 10 10 10 9 10 10 10 10 10 10 9 9 9
8 8 8 9 9 9 9 9 9 9 9 9 9 10 10 10 10 10 10 10 10 10 11 10 10 10 10 10 10 10 10 9 9 9 9 9 9 9 9 9 9 9 9
8 8 8 8 8 8 8 8 8 9 9 9 9 9 9 10 10 10 10 10 10 10 10 10 10 10 10 10 10 9 9 9 9 8 8 8 8 9 9 8 8 8 8
Wind_Speed
2 5 10 12 13 14 14 13 13 13 13 13 13 13 14 14 14 14 14 14 13 13 13 13 13 13 13 14 14 14 14 14 14 14 13 13 13 13 13 13 12 12 13
5 6 11 11 13 14 13 13 12 13 13 13 13 13 13 14 14 14 13 13 13 12 13 12 12 12 12 12 13 13 13 13 13 12 11 11 11 12 11 11 11 10 12
5 6 9 11 11 13 13 13 13 12 13 12 13 12 13 13 13 13 13 12 12 12 12 12 12 12 12 11 12 12 11 11 10 10 8 8 9 10 10 10 10 10 10
5 6 7 10 11 11 13 13 13 12 12 12 12 12 12 13 13 12 13 12 12 11 11 11 12 11 11 11 10 10 10 9 8 7 6 6 6 8 9 9 9 9 9
5 5 6 9 11 11 11 12 13 12 12 11 11 11 12 12 12 12 12 12 12 11 11 11 11 11 10 9 8 8 7 6 6 6 6 6 6 7 8 8 8 7 7
4 4 6 8 9 10 10 11 12 12 12 11 12 12 12 12 12 12 12 12 12 11 11 11 11 10 9 8 7 6 5 5 6 7 6 6 5 6 6 7 6 6 6
3 3 4 6 8 8 9 10 11 12 12 12 12 12 12 12 12 12 12 12 12 12 11 11 11 10 9 7 6 5 4 4 5 5 5 5 5 5 5 5 5 4 4
4 3 3 5 5 6 8 9 10 11 12 12 12 12 12 12 12 12 13 12 12 12 11 11 11 10 9 7 6 4 3 3 4 5 5 4 4 5 5 4 4 3 3
4 3 2 2 4 5 5 7 9 10 11 12 12 12 12 12 13 13 13 13 12 12 12 12 12 10 9 7 6 4 3 3 4 5 5 5 5 5 4 4 3 2 1
3 2 2 1 2 2 3 5 7 9 10 11 12 12 12 12 13 13 13 13 13 13 13 12 12 11 9 8 6 5 3 3 3 5 5 6 6 5 4 3 2 1 1
3 2 2 1 1 1 2 3 4 6 8 9 10 11 11 10 11 12 13 14 13 13 13 13 12 11 10 8 7 5 3 3 3 5 6 7 7 6 4 4 3 2 1
2 2 1 1 1 1 2 2 2 4 5 6 7 9 9 9 10 10 12 14 14 14 13 13 12 11 9 7 6 5 4 4 3 5 7 8 8 6 5 4 4 3 3
2 2 2 1 2 1 1 2 2 3 3 5 6 8 8 8 8 8 8 10 11 12 10 10 10 9 8 7 6 5 5 5 4 5 7 9 8 7 6 5 4 4 4
2 3 2 2 1 1 1 2 2 2 3 3 5 7 7 5 4 5 6 8 8 9 8 7 7 7 8 8 7 6 6 5 5 6 7 9 8 7 6 6 6 5 5
3 3 3 2 2 2 1 2 2 3 3 4 5 7 7 5 5 5 5 6 7 8 8 6 6 6 6 6 6 6 5 6 6 6 7 9 9 8 7 6 6 6 6
3 3 3 3 2 2 2 2 2 3 3 4 4 6 8 7 5 5 5 5 6 7 8 8 7 6 5 5 5 5 6 6 7 7 7 9 10 10 8 7 7 7 7
3 3 3 3 2 2 3 3 2 3 3 3 4 6 7 7 6 6 5 5 6 8 7 6 6 5 4 4 5 5 5 6 6 7 8 8 8 9 9 8 8 8 8
1 2 3 3 3 3 2 2 2 2 2 3 4 5 7 7 7 5 5 5 6 6 5 5 4 5 4 4 4 5 4 5 5 6 7 7 7 7 8 9 9 9 9
2 2 2 3 3 3 2 2 1 1 1 2 3 3 5 6 7 5 4 4 6 5 5 5 4 4 4 4 4 4 4 4 4 5 5 7 7 7 7 8 9 9 9
2 2 2 2 3 3 2 1 1 1 1 1 1 2 3 4 5 5 3 4 5 4 4 4 4 4 3 3 4 4 3 3 3 4 5 5 6 7 7 7 7 8 9
2 2 2 2 3 2 1 1 1 1 1 1 1 1 2 3 4 4 3 3 4 4 5 5 4 3 2 1 1 1 2 2 4 4 4 4 4 5 6 7 6 7 7
2 2 2 2 3 2 1 1 1 1 1 1 1 0 1 2 2 3 3 3 3 3 4 4 4 3 2 2 2 1 1 2 2 3 3 4 4 3 4 6 6 6 6
2 3 3 3 3 3 2 1 1 1 1 1 1 0 1 1 2 3 3 3 3 3 3 4 4 5 3 2 2 2 2 3 2 2 3 3 3 3 3 4 5 6 6
3 3 3 3 3 2 2 2 2 1 2 2 1 1 1 1 2 3 3 3 2 2 3 3 3 3 4 3 2 1 1 1 2 2 2 3 3 4 4 3 4 6 7
3 3 3 3 3 2 2 2 2 2 1 1 1 1 1 1 2 3 3 3 3 2 3 2 2 2 3 3 3 2 1 1 2 2 3 3 3 4 4 5 4 5 7
2 2 2 2 2 1 1 1 2 2 1 1 1 2 1 1 1 2 3 3 2 2 2 3 2 2 2 3 3 3 3 2 2 2 3 4 5 5 5 5 5 5 6
Wind_Direction
199 186 165 158 153 150 147 144 142 141 140 136 133 131 128 126 124 123 123 123 123 122 118 115 113 110 107 105 103 102 100 97 93 89 84 83 86 88 86 81 77 74 76
176 171 162 159 157 154 151 149 145 147 147 146 143 140 139 136 133 130 129 128 128 126 123 121 118 115 112 110 108 106 102 99 95 90 84 81 85 89 88 86 84 81 78
138 156 159 160 157 157 155 153 151 151 153 154 154 150 147 145 143 140 138 136 135 132 129 126 125 121 116 113 113 111 107 103 99 93 89 88 90 91 91 91 87 83 80
130 142 153 162 160 159 160 158 157 156 158 159 160 158 156 154 152 150 146 145 143 139 134 132 129 126 122 119 118 116 111 105 98 93 91 98 100 99 96 94 88 84 80
112 128 148 161 163 162 164 165 163 162 164 165 165 164 163 162 160 158 154 151 149 144 140 137 134 131 129 127 125 122 115 103 95 98 103 109 107 103 100 95 90 86 82
91 108 139 155 161 164 165 169 170 168 169 170 170 170 169 168 166 163 160 155 153 151 148 145 142 139 139 139 137 130 115 95 100 107 119 120 117 110 109 104 96 89 83
87 90 131 148 157 164 170 174 177 177 176 175 176 177 176 174 171 168 164 161 160 161 159 156 154 151 153 154 152 142 117 96 114 117 130 133 133 123 119 113 104 96 86
110 90 121 140 152 165 177 183 183 185 185 183 184 185 184 181 179 175 170 168 169 169 167 165 163 163 167 169 167 156 127 104 125 139 149 160 152 140 131 121 111 102 89
77 84 90 138 146 160 179 191 194 194 192 191 189 188 187 186 184 181 179 176 177 177 174 172 172 174 178 181 181 177 157 132 140 159 169 179 170 155 143 139 137 128 105
48 58 53 73 125 151 181 193 200 202 199 195 192 190 189 188 185 185 185 185 183 183 180 180 181 183 186 190 194 195 185 164 161 176 186 189 182 166 157 158 164 168 151
23 9 14 14 4 193 190 198 199 205 203 196 193 191 187 185 185 187 190 190 190 188 187 187 188 189 190 196 202 206 204 193 180 188 194 194 186 178 173 178 186 195 210
348 333 340 336 308 263 226 221 214 209 205 196 191 188 187 185 187 191 194 194 195 194 193 194 193 193 190 195 204 207 210 212 205 200 201 196 191 191 191 195 205 221 232
291 313 319 311 315 278 255 221 219 213 206 199 192 186 183 183 188 191 190 196 199 199 197 197 194 191 190 195 201 207 212 215 217 210 209 204 200 200 201 207 219 234 242
303 299 298 288 293 287 259 238 214 206 202 200 201 192 180 178 183 190 192 193 193 195 193 192 190 190 193 197 200 205 212 215 216 212 211 207 206 208 212 218 228 239 249
298 304 301 287 262 268 264 251 223 216 208 203 199 198 188 184 190 191 192 190 191 191 191 190 190 192 197 202 205 206 212 220 219 216 215 211 208 212 218 223 231 242 252
291 294 297 300 277 262 235 234 238 226 215 203 202 202 197 193 191 192 192 191 192 193 195 194 193 195 201 202 211 211 212 218 217 214 214 214 214 215 218 225 235 244 253
285 299 300 299 305 279 251 241 235 229 218 209 210 207 200 196 192 190 191 195 198 195 190 189 192 193 203 209 217 218 215 217 215 212 212 213 217 219 220 226 234 241 250
309 321 319 322 325 297 267 255 251 231 221 220 217 211 204 197 188 181 191 199 198 191 188 189 190 194 205 210 220 225 220 216 213 210 208 209 210 213 222 231 239 245 252
314 310 319 323 321 304 280 266 258 246 236 237 221 214 205 195 188 180 195 197 187 187 191 196 196 194 202 212 221 223 221 219 216 207 202 205 208 211 220 233 240 246 252
317 312 314 319 319 312 310 318 309 284 276 299 222 217 213 198 190 181 190 193 184 184 190 193 192 197 201 210 226 231 230 224 217 211 209 207 211 217 221 229 235 247 253
330 333 328 317 313 327 326 306 269 260 277 288 262 215 211 196 186 181 189 188 187 191 195 189 188 190 200 183 182 256 267 234 218 221 219 212 216 218 221 229 235 244 255
298 306 310 296 293 290 272 266 236 244 252 241 241 278 210 169 174 181 174 180 186 187 189 186 183 184 188 168 162 157 248 273 252 241 226 217 221 220 230 236 236 238 246
285 285 287 285 285 285 279 283 4 28 345 311 276 277 280 152 162 151 157 169 178 176 188 191 188 186 192 199 179 165 175 223 264 260 236 223 221 234 247 247 238 242 249
270 277 281 285 285 278 253 206 190 200 232 244 231 220 243 111 144 143 141 149 166 170 171 185 187 187 183 195 194 192 201 182 197 249 261 239 239 245 246 256 255 251 254
266 282 285 289 283 268 244 209 195 204 234 244 202 180 195 156 136 136 140 150 163 168 163 160 162 169 184 192 193 184 197 246 216 217 258 268 267 250 247 247 244 257 265
281 291 291 297 292 272 228 207 199 189 181 180 211 196 192 158 148 136 134 145 159 171 173 174 166 169 192 195 201 200 199 202 216 223 252 269 267 261 255 247 244 253 268
Height
1516 1516 1518 1519 1520 1522 1523 1524 1526 1527 1529 1530 1531 1532 1533 1534 1535 1536 1536 1537 1538 1538 1539 1539 1540 1540 1541 1541 1541 1542 1542 1542 1542 1542 1542 1542 1541 1541 1541 1540 1540 1540 1539
1515 1516 1517 1519 1520 1522 1523 1524 1526 1527 1529 1530 1531 1532 1533 1534 1535 1536 1537 1538 1538 1539 1539 1540 1541 1541 1541 1542 1542 1543 1543 1543 1543 1543 1543 1543 1543 1542 1542 1542 1541 1541 1540
1514 1516 1517 1519 1520 1522 1523 1524 1526 1527 1529 1530 1531 1532 1534 1535 1536 1536 1537 1538 1539 1540 1540 1541 1541 1542 1542 1543 1543 1543 1544 1544 1544 1544 1544 1544 1544 1543 1543 1543 1542 1542 1541
1514 1515 1517 1518 1520 1521 1523 1524 1526 1527 1528 1530 1531 1532 1534 1535 1536 1536 1537 1538 1539 1540 1541 1541 1542 1542 1543 1544 1544 1544 1544 1545 1545 1545 1545 1545 1544 1544 1544 1544 1543 1543 1542
1514 1515 1516 1518 1520 1521 1522 1524 1525 1527 1528 1529 1531 1532 1533 1535 1536 1537 1537 1538 1539 1540 1541 1541 1542 1543 1544 1544 1544 1545 1545 1545 1545 1545 1545 1545 1545 1545 1545 1544 1544 1543 1543
1514 1515 1516 1517 1519 1520 1522 1523 1524 1526 1527 1529 1530 1532 1533 1534 1535 1536 1537 1538 1539 1540 1541 1541 1542 1543 1544 1544 1545 1545 1545 1545 1546 1546 1546 1546 1546 1545 1545 1545 1544 1544 1543
1513 1514 1515 1517 1518 1519 1521 1522 1523 1525 1526 1528 1529 1531 1532 1533 1535 1536 1537 1538 1539 1540 1540 1541 1542 1543 1544 1544 1545 1545 1545 1545 1546 1546 1546 1546 1546 1545 1545 1545 1544 1544 1543
1512 1513 1514 1516 1517 1518 1519 1521 1522 1523 1525 1526 1528 1529 1531 1532 1533 1535 1536 1537 1538 1539 1540 1541 1542 1542 1543 1544 1544 1545 1545 1545 1546 1546 1546 1546 1546 1545 1545 1545 1544 1544 1543
1511 1512 1513 1514 1516 1517 1518 1519 1520 1522 1523 1525 1526 1528 1529 1531 1532 1533 1535 1536 1537 1538 1539 1540 1541 1542 1542 1543 1544 1544 1545 1545 1545 1545 1545 1545 1545 1545 1545 1544 1544 1543 1543
1510 1511 1512 1513 1514 1515 1516 1518 1519 1520 1521 1523 1524 1526 1527 1529 1530 1532 1533 1534 1536 1537 1538 1539 1540 1541 1541 1542 1543 1543 1544 1544 1544 1544 1545 1545 1545 1544 1544 1544 1543 1543 1542
1509 1510 1510 1511 1512 1513 1514 1515 1517 1518 1519 1521 1522 1524 1525 1527 1528 1530 1531 1533 1534 1535 1536 1537 1538 1539 1540 1541 1542 1542 1543 1543 1543 1544 1544 1544 1544 1543 1543 1543 1542 1541 1541
1507 1508 1509 1509 1510 1511 1512 1513 1514 1516 1517 1518 1520 1521 1523 1524 1526 1528 1529 1530 1532 1533 1534 1535 1537 1538 1539 1539 1540 1541 1541 1542 1542 1542 1542 1542 1542 1542 1542 1541 1540 1540 1539
1505 1506 1506 1507 1508 1509 1509 1510 1511 1513 1514 1515 1517 1519 1520 1522 1523 1525 1526 1528 1529 1530 1532 1533 1534 1535 1536 1537 1538 1539 1539 1540 1540 1541 1541 1541 1541 1540 1540 1539 1539 1538 1537
1503 1503 1504 1504 1505 1506 1507 1507 1508 1509 1511 1512 1514 1515 1517 1518 1520 1522 1523 1524 1526 1527 1529 1530 1532 1533 1534 1535 1536 1537 1537 1538 1538 1538 1539 1539 1539 1538 1538 1537 1536 1536 1535
1500 1500 1500 1501 1502 1503 1503 1504 1505 1506 1507 1509 1510 1512 1513 1515 1516 1518 1519 1521 1523 1524 1526 1527 1529 1530 1531 1532 1533 1534 1535 1535 1536 1536 1536 1536 1536 1536 1535 1535 1534 1533 1533
1497 1497 1497 1498 1498 1499 1500 1500 1501 1502 1504 1505 1506 1508 1509 1511 1513 1514 1516 1517 1519 1521 1523 1524 1526 1527 1528 1529 1530 1531 1532 1532 1533 1533 1533 1533 1533 1533 1533 1532 1531 1531 1530
1494 1494 1494 1495 1495 1495 1496 1497 1497 1498 1499 1501 1502 1504 1505 1507 1509 1510 1512 1514 1515 1517 1519 1521 1522 1524 1525 1526 1527 1528 1528 1529 1529 1530 1530 1530 1530 1530 1530 1529 1528 1528 1527
1491 1491 1491 1492 1492 1492 1492 1493 1494 1495 1496 1497 1498 1500 1501 1503 1504 1506 1508 1510 1512 1513 1515 1517 1518 1520 1521 1522 1523 1524 1525 1525 1526 1526 1526 1526 1526 1526 1526 1525 1525 1524 1524
1488 1488 1488 1488 1488 1488 1489 1489 1490 1491 1492 1493 1494 1495 1497 1498 1500 1502 1504 1505 1508 1509 1511 1513 1514 1515 1517 1518 1519 1520 1520 1521 1522 1522 1522 1522 1522 1522 1522 1522 1521 1520 1520
1485 1485 1485 1485 1485 1485 1485 1486 1486 1487 1488 1489 1490 1491 1493 1494 1496 1498 1499 1501 1503 1505 1507 1508 1510 1511 1512 1514 1515 1515 1516 1516 1517 1517 1518 1518 1518 1518 1518 1517 1517 1516 1515
1483 1482 1481 1482 1482 1482 1482 1482 1482 1483 1484 1485 1486 1487 1488 1490 1491 1493 1495 1497 1499 1500 1502 1504 1505 1507 1508 1510 1511 1511 1511 1512 1512 1513 1514 1514 1514 1514 1513 1513 1512 1511 1510
1480 1479 1479 1478 1478 1478 1478 1478 1479 1479 1480 1481 1482 1483 1484 1485 1487 1488 1490 1492 1494 1496 1498 1499 1501 1502 1504 1505 1506 1506 1506 1507 1507 1508 1509 1509 1509 1509 1508 1508 1507 1506 1505
1477 1476 1476 1475 1474 1474 1475 1475 1475 1476 1476 1477 1478 1478 1480 1482 1483 1485 1486 1488 1490 1492 1493 1495 1497 1498 1499 1501 1502 1503 1503 1501 1502 1503 1503 1504 1504 1503 1503 1502 1501 1500 1500
1474 1473 1473 1471 1470 1470 1471 1471 1472 1472 1472 1473 1474 1475 1476 1478 1480 1481 1483 1484 1486 1488 1490 1491 1492 1494 1495 1496 1498 1498 1499 1499 1499 1497 1498 1498 1498 1498 1497 1497 1496 1495 1494
1471 1470 1469 1468 1467 1467 1467 1468 1468 1468 1469 1470 1471 1471 1473 1474 1476 1478 1479 1481 1483 1484 1485 1487 1488 1490 1491 1492 1493 1493 1494 1495 1495 1495 1493 1493 1492 1492 1492 1491 1490 1489 1488
1468 1467 1466 1465 1465 1465 1465 1465 1465 1465 1466 1467 1468 1468 1469 1470 1472 1474 1476 1477 1479 1480 1482 1483 1484 1485 1487 1488 1489 1489 1490 1490 1490 1490 1489 1488 1486 1486 1486 1485 1484 1484 1482